User: anonymous   Login
Location: Unspecified
(0.0000°N, 0.0000°E)
Time: 06:06:08
(UTC+02:00)
Language:

Gbstr 26 Del rocket - Orbit

View from above orbital plane
View from above orbital plane
View from above satellite
View from above satellite

Ground track
Ground track

The orbit data is extracted from the following two-line orbital elements,

1 25876U 99041E   18170.82471813 -.00000196  00000-0  80489-5 0  9993
2 25876  51.7649 306.2411 0531369  19.6951 342.3676 14.04220926966278
Epoch (UTC): 19 June 2018 19:47:35
Eccentricity: 0.0531369
inclination: 51.7649°
perigee height: 493 km
apogee height: 1265 km
right ascension of ascending node: 306.2411°
argument of perigee: 19.6951°
revolutions per day: 14.04220926
mean anomaly at epoch: 342.3676°
orbit number at epoch: 96627

The dashed part of the orbit path shows where the satellite is in the earth's shadow,  

DLR